Date String (YYYY-MM-DD hh:mm:ss) UTC,Instrument flags,Ambient pressure (hPa),Sample flow (lpm),Bypass flow (lpm),Sample temperature (°C),Ambient temperature (°C),ASC tube jacket temperature (°C),LED temperature (°C),Box temperature (°C),Sample RH (%),Span deviation,Mass concentration (μg/m³),Mass concentration (μg/m³),Mass concentration (μg/m³)
DateTimeUTC,F1_M11,P_M11,Q1_M11,Q2_M11,T1_M11,T2_M11,T3_M11,T4_M11,T5_M11,U1_M11,ZSPAN_M11,X0_M11,X2_M11,X1_M11
2022-11-20 07:00:00,,0828.9,5.02,0.00,21.8,20.2,00.0,30.8,23.5,08.9,0000.0,0007.94,0003.74,0003.53
2022-11-20 07:01:00,,0828.8,4.99,0.00,21.7,20.2,00.0,30.7,23.5,09.0,0000.0,0007.93,0003.75,0003.54
2022-11-20 07:02:00,,0828.7,4.98,0.00,21.8,21.1,00.0,30.7,23.6,09.0,0000.0,0007.93,0003.76,0003.56
2022-11-20 07:03:00,,0828.7,5.00,0.00,21.9,21.9,00.0,30.7,23.9,08.9,0000.0,0008.01,0003.78,0003.59
2022-11-20 07:04:00,,0828.7,5.01,0.00,22.0,21.8,00.0,30.7,23.9,08.8,0000.0,0008.12,0003.81,0003.61
2022-11-20 07:05:00,,0828.9,4.99,0.00,22.0,21.4,00.0,30.8,23.9,08.8,0000.0,0007.71,0003.81,0003.63
2022-11-20 07:06:00,,0828.9,4.99,0.00,21.9,21.1,00.0,30.8,23.8,08.8,0000.0,0007.47,0003.79,0003.61
2022-11-20 07:07:00,,0828.7,5.01,0.00,21.9,20.9,00.0,30.8,23.7,08.8,0000.0,0007.54,0003.80,0003.61
2022-11-20 07:08:00,,0828.7,5.00,0.00,21.9,20.6,00.0,30.8,23.7,08.8,0000.0,0007.52,0003.79,0003.60
2022-11-20 07:09:00,,0828.9,4.99,0.00,21.9,20.5,00.0,30.8,23.6,08.9,0000.0,0007.93,0003.81,0003.62
2022-11-20 07:10:00,,0829.3,5.02,0.00,21.8,20.3,00.0,30.8,23.6,08.9,0000.0,0007.00,0003.84,0003.63
2022-11-20 07:11:00,,0828.9,5.00,0.00,21.8,20.2,00.0,30.8,23.5,08.6,0000.0,0006.90,0003.83,0003.64
2022-11-20 07:12:00,,0828.7,5.00,0.00,21.8,20.1,00.0,30.8,23.5,08.6,0000.0,0007.72,0003.84,0003.66
2022-11-20 07:13:00,,0828.7,5.00,0.00,21.8,20.3,00.0,30.7,23.5,08.8,0000.0,0007.77,0003.85,0003.65
2022-11-20 07:14:00,,0828.7,4.98,0.00,21.8,21.2,00.0,30.7,23.7,08.9,0000.0,0007.82,0003.87,0003.66
2022-11-20 07:15:00,,0828.7,5.01,0.00,21.9,22.0,00.0,30.7,23.9,08.8,0000.0,0007.72,0003.87,0003.65
2022-11-20 07:16:00,,0828.7,4.99,0.00,22.0,21.7,00.0,30.7,23.9,08.8,0000.0,0007.79,0003.89,0003.64
2022-11-20 07:17:00,,0828.7,4.99,0.00,22.0,21.3,00.0,30.8,23.9,08.8,0000.0,0007.87,0003.93,0003.65
2022-11-20 07:18:00,,0829.0,5.01,0.00,21.9,21.1,00.0,30.8,23.8,08.9,0000.0,0007.99,0003.95,0003.67
2022-11-20 07:19:00,,0829.2,5.00,0.00,21.9,20.9,00.0,30.8,23.7,08.9,0000.0,0008.13,0004.00,0003.69
2022-11-20 07:20:00,,0828.8,5.00,0.00,21.9,20.6,00.0,30.8,23.6,09.0,0000.0,0007.79,0004.02,0003.70
2022-11-20 07:21:00,,0828.6,5.00,0.00,21.8,20.4,00.0,30.8,23.6,09.0,0000.0,0007.75,0004.02,0003.69
2022-11-20 07:22:00,,0828.9,5.00,0.00,21.8,20.3,00.0,30.8,23.6,09.0,0000.0,0007.71,0004.00,0003.67
2022-11-20 07:23:00,,0829.2,4.99,0.00,21.8,20.2,00.0,30.8,23.5,09.0,0000.0,0007.02,0004.00,0003.66
2022-11-20 07:24:00,,0829.1,5.01,0.00,21.8,20.3,00.0,30.8,23.5,09.0,0000.0,0006.88,0003.99,0003.65
2022-11-20 07:25:00,,0829.2,4.98,0.00,21.8,21.2,00.0,30.7,23.7,09.0,0000.0,0006.83,0003.98,0003.64
2022-11-20 07:26:00,,0829.2,5.01,0.00,21.9,22.1,00.0,30.7,23.9,08.9,0000.0,0006.84,0003.96,0003.63
2022-11-20 07:27:00,,0829.1,4.99,0.00,22.0,21.9,00.0,30.8,24.0,08.9,0000.0,0006.75,0003.93,0003.63
2022-11-20 07:28:00,,0828.7,5.00,0.00,22.0,21.5,00.0,30.8,23.9,08.9,0000.0,0006.91,0003.92,0003.63
2022-11-20 07:29:00,,0828.7,5.01,0.00,22.0,21.2,00.0,30.8,23.8,08.9,0000.0,0007.15,0003.91,0003.63
2022-11-20 07:30:00,,0829.0,4.98,0.00,22.0,21.0,00.0,30.8,23.8,09.0,0000.0,0006.98,0003.88,0003.62
2022-11-20 07:31:00,,0828.9,5.01,0.00,21.9,20.7,00.0,30.9,23.7,09.0,0000.0,0006.89,0003.86,0003.60
2022-11-20 07:32:00,,0828.9,5.00,0.00,21.9,20.5,00.0,30.8,23.7,08.9,0000.0,0006.87,0003.85,0003.59
2022-11-20 07:33:00,,0828.6,5.00,0.00,21.9,20.4,00.0,30.8,23.6,08.9,0000.0,0006.94,0003.84,0003.58
2022-11-20 07:34:00,,0828.6,4.99,0.00,21.8,20.3,00.0,30.8,23.6,08.9,0000.0,0006.89,0003.83,0003.57
2022-11-20 07:35:00,,0828.9,4.99,0.00,21.8,20.2,00.0,30.8,23.5,08.9,0000.0,0006.88,0003.83,0003.55
2022-11-20 07:36:00,,0829.1,5.01,0.00,21.8,21.0,00.0,30.8,23.7,08.9,0000.0,0006.92,0003.82,0003.54
2022-11-20 07:37:00,,0829.0,5.00,0.00,22.0,22.0,00.0,30.7,23.9,08.9,0000.0,0007.06,0003.83,0003.53
2022-11-20 07:38:00,,0829.0,4.98,0.00,22.0,21.9,00.0,30.8,24.0,08.8,0000.0,0006.99,0003.81,0003.51
2022-11-20 07:39:00,,0828.9,5.01,0.00,22.0,21.6,00.0,30.8,23.9,08.8,0000.0,0006.74,0003.80,0003.50
2022-11-20 07:40:00,,0828.7,5.01,0.00,22.0,21.2,00.0,30.9,23.9,08.8,0000.0,0006.16,0003.77,0003.47
2022-11-20 07:41:00,,0828.5,4.98,0.00,22.0,21.0,00.0,30.9,23.8,08.8,0000.0,0006.05,0003.73,0003.44
2022-11-20 07:42:00,,0828.5,5.01,0.00,22.0,20.8,00.0,30.9,23.8,08.8,0000.0,0005.99,0003.71,0003.42
2022-11-20 07:43:00,,0828.4,5.00,0.00,21.9,20.6,00.0,30.9,23.7,08.8,0000.0,0005.85,0003.68,0003.41
2022-11-20 07:44:00,,0828.5,4.98,0.00,21.9,20.5,00.0,30.9,23.6,08.8,0000.0,0005.72,0003.65,0003.39
2022-11-20 07:45:00,,0828.5,5.01,0.00,21.9,20.4,00.0,30.9,23.7,08.8,0000.0,0005.65,0003.63,0003.38
2022-11-20 07:46:00,,0828.5,5.01,0.00,21.9,20.3,00.0,30.9,23.7,08.9,0000.0,0005.76,0003.60,0003.36
2022-11-20 07:47:00,,0828.5,5.00,0.00,21.8,20.4,00.0,30.8,23.6,08.8,0000.0,0005.73,0003.58,0003.36
2022-11-20 07:48:00,,0828.5,5.00,0.00,21.9,21.3,00.0,30.8,23.8,08.8,0000.0,0005.46,0003.54,0003.34
2022-11-20 07:49:00,,0828.4,5.00,0.00,22.0,22.1,00.0,30.8,24.0,08.8,0000.0,0005.37,0003.54,0003.32
2022-11-20 07:50:00,,0828.4,4.99,0.00,22.1,21.8,00.0,30.8,24.0,08.7,0000.0,0005.32,0003.52,0003.31
2022-11-20 07:51:00,,0828.3,5.00,0.00,22.1,21.5,00.0,30.9,24.0,08.7,0000.0,0005.38,0003.49,0003.29
2022-11-20 07:52:00,,0828.3,5.01,0.00,22.0,21.2,00.0,30.9,23.9,08.7,0000.0,0006.18,0003.48,0003.28
2022-11-20 07:53:00,,0828.4,4.98,0.00,22.0,20.9,00.0,30.9,23.8,08.7,0000.0,0006.11,0003.46,0003.27
2022-11-20 07:54:00,,0828.3,5.00,0.00,22.0,20.7,00.0,30.9,23.8,08.7,0000.0,0006.13,0003.46,0003.26
2022-11-20 07:55:00,,0828.4,5.00,0.00,21.9,20.5,00.0,30.9,23.7,08.7,0000.0,0006.41,0003.47,0003.25
2022-11-20 07:56:00,,0828.4,5.00,0.00,21.9,20.4,00.0,30.9,23.7,08.7,0000.0,0006.43,0003.46,0003.25
2022-11-20 07:57:00,,0828.4,5.00,0.00,21.9,20.3,00.0,30.9,23.6,08.8,0000.0,0006.37,0003.47,0003.24
2022-11-20 07:58:00,,0828.3,5.00,0.00,21.9,20.2,00.0,30.9,23.6,08.8,0000.0,0006.37,0003.48,0003.25
2022-11-20 07:59:00,,0828.4,5.00,0.00,21.9,20.6,00.0,30.8,23.7,08.8,0000.0,0006.38,0003.49,0003.25
